Home > Weather > Cali > Past weeks

Flag for Colombia Past Weather in Cali, Colombia — Yesterday and Last 2 Weeks

Now
70 °F

Partly sunny.


Feels Like: 70 °F
Forecast: 70 / 85 °F
Wind: 3 mph from East

Location: Cali / Alfonso Bonillaaragon

Current Time: Jul 27, 2016 at 8:34:51 AM

Latest Report: Jul 27, 2016 at 8:00 AM


Visibility: 5 mi

Pressure: 29.95 "Hg (26.80 "Hg at 955m altitude)

Humidity: 94%

Dew Point: 68 °F

Location of CaliLocation

Past Weather in Cali — Graph

°F

Cali Temperature Yesterday

Maximum temperature yesterday: 91 °F (at 3:00 PM)
Minimum temperature yesterday: 63 °F (at 5:00 AM)
Average temperature yesterday: 76 °F

High & Low Weather Summary for the Past Weeks

 TemperatureHumidityPressure
High91 °F (Jul 26, 3:00 PM)100% (Jul 15, 7:00 AM)30.11 "Hg (Jul 15, 7:00 AM)
Low63 °F (Jul 21, 6:00 AM)43% (Jul 12, 2:00 PM)29.82 "Hg (Jul 26, 4:00 PM)
Average75 °F75%29.99 "Hg
* Reported Jul 12 7:00 AM — Jul 27 7:00 AM, Cali, Weather by CustomWeather, © 2016

Note: Actual official high and low records may vary slightly from our data, if they occured in-between our weather recording intervals... More about our weather records

Advertising

Cali Weather History for the Previous 24 Hours

Scroll right to see more
 ConditionsComfort  
Time TempWeatherWind HumidityBarometerVisibility
7:00 AM
Wed, Jul 27
70 °FPartly sunny.3 mph94%29.95 "HgN/A
6:00 AM68 °FPassing clouds.2 mph94%29.94 "HgN/A
5:00 AM70 °FPartly cloudy.3 mph94%29.92 "HgN/A
4:00 AM70 °FPartly cloudy.3 mph94%29.93 "HgN/A
3:00 AM70 °FPassing clouds.3 mph88%29.92 "HgN/A
2:00 AM70 °FPassing clouds.6 mph88%29.94 "HgN/A
1:00 AM72 °FPassing clouds.3 mph83%29.96 "HgN/A
12:00 AM72 °FPassing clouds.6 mph83%29.96 "HgN/A
11:00 PM
Tue, Jul 26
72 °FPassing clouds.5 mph88%29.95 "HgN/A
10:00 PM75 °FPartly cloudy.9 mph74%29.95 "HgN/A
9:00 PM75 °FPartly cloudy.13 mph78%29.93 "HgN/A
8:00 PM77 °FPassing clouds.13 mph74%29.90 "HgN/A
7:00 PM79 °FPartly cloudy.14 mph70%29.86 "HgN/A
6:00 PM82 °FPartly sunny.14 mph58%29.83 "HgN/A
5:00 PM88 °FScattered showers. Scattered clouds.14 mph49%29.82 "HgN/A
4:00 PM90 °FScattered clouds.9 mph46%29.82 "HgN/A
3:00 PM91 °FScattered clouds.9 mph44%29.83 "HgN/A
1:00 PM90 °FScattered clouds.No wind46%29.91 "HgN/A
12:00 PM86 °FScattered clouds.No wind52%29.95 "HgN/A
11:00 AM84 °FPartly sunny.5 mph55%29.97 "Hg6 mi
10:00 AM81 °FScattered clouds.6 mph62%29.99 "Hg6 mi
9:00 AM77 °FScattered clouds.3 mph65%30.00 "HgN/A
Weather by CustomWeather, © 2016

See weather overviewHow to use our weather pages